Change the Weather History Date:

Friday, March 8, 2013

  Actual Average Record
Temperature  
Mean Temperature -43 °F -  
Max Temperature -37 °F -24 °F -11 °F (2008)
Min Temperature -49 °F -38 °F -50 °F (2001)
Degree Days  
Heating Degree Days 108    
Moisture  
Dew Point -51 °F    
Average Humidity 67    
Maximum Humidity 81    
Minimum Humidity 26    
Precipitation  
Precipitation 0.00 in 0.00 in - ()
Sea Level Pressure  
Sea Level Pressure 30.59 in    
Wind  
Wind Speed 0 mph ()    
Max Wind Speed 2 mph    
Max Gust Speed -    
Visibility 15.0 miles    
Events Snow    
Averages and records for this station are not official NWS values.
T = Trace of Precipitation, MM = Missing Value Source: Averaged Metar Reports

Daily Weather History Graph

Daily Weather History Graph

Search for Another Location

Airport or City:

Trip Planner

Search our weather history database for the weather conditions in past years. The results will help you decide how hot, cold, wet, or windy it might be!

Date:

Astronomy

Mar. 08, 2013 Rise Set
Actual Time 7:23 AM CST 4:28 PM CST
Civil Twilight 5:23 AM CST 6:30 PM CST
Nautical Twilight 2:47 AM CST 9:11 PM CST
Astronomical Twilight Sun does not rise Sun does not rise
Moon No Moon Rise No Moon Set
Length of Visible Light 13h 06m
Length of Day
9h 04m
Waning Crescent, 11% of the Moon is Illuminated
Mar 8
Waning Crescent
Mar 11
New
Mar 19
First Quarter
Mar 27
Full
Apr 2
Last Quarter

Hourly Weather History & Observations

Time (CST) Temp. Dew Point Humidity Pressure Visibility Wind Dir Wind Speed Gust Speed Precip Events Conditions
12:00 AM -48 °F -52 °F 63% 30.67 in 15 mi Calm Calm - - Snow Snow
12:00 AM -47.2 °F -52.6 °F 73% 30.67 in 15.0 mi Calm Calm - N/A   Clear
1:00 AM -47.2 °F -52.6 °F 73% 30.67 in 15.0 mi Calm Calm - N/A   Clear
2:00 AM -45.4 °F -50.8 °F 74% 30.67 in 15.0 mi Calm Calm - N/A   Clear
3:00 AM -49.0 °F -52.6 °F 81% 30.66 in 15.0 mi Calm Calm - N/A   Clear
4:00 AM -49.0 °F -52.6 °F 81% 30.66 in 15.0 mi Calm Calm - N/A   Clear
5:00 AM -47.2 °F -52.6 °F 73% 30.64 in 15.0 mi Calm Calm - N/A   Clear
6:00 AM -47 °F -52 °F 58% 30.63 in 15 mi Calm Calm - - Snow Snow
6:00 AM -47.2 °F -52.6 °F 73% 30.63 in 15.0 mi Calm Calm - N/A   Partly Cloudy
7:00 AM -41.8 °F -49.0 °F 67% 30.62 in 15.0 mi Calm Calm - N/A   Partly Cloudy
8:00 AM -47.2 °F -52.6 °F 73% 30.61 in 15.0 mi Calm Calm - N/A   Partly Cloudy
9:00 AM -47.2 °F -50.8 °F 81% 30.60 in 15.0 mi Calm Calm - N/A   Partly Cloudy
10:00 AM -43.6 °F -49.0 °F 74% 30.58 in 15.0 mi Calm Calm - N/A   Partly Cloudy
11:00 AM -41.8 °F -47.2 °F 74% 30.58 in 15.0 mi Calm Calm - N/A   Partly Cloudy
12:00 PM -41 °F -48 °F 47% 30.56 in 15 mi Calm Calm - - Snow Snow
12:00 PM -40.0 °F -49.0 °F 60% 30.56 in 15.0 mi East 2.3 mph - N/A   Partly Cloudy
1:00 PM -43.6 °F -50.8 °F 67% 30.55 in 15.0 mi Calm Calm - N/A   Partly Cloudy
2:00 PM -40.0 °F -45.4 °F 74% 30.54 in 15.0 mi Calm Calm - N/A   Partly Cloudy
3:00 PM -41.8 °F -49.0 °F 67% 30.54 in 15.0 mi Calm Calm - N/A   Clear
4:00 PM -43.6 °F -50.8 °F 67% 30.53 in 15.0 mi Calm Calm - N/A   Clear
5:00 PM -43.6 °F -52.6 °F 60% 30.52 in 15.0 mi Calm Calm - N/A   Clear
6:00 PM -39 °F -52 °F 26% 30.52 in 15 mi Calm Calm - - Snow Snow
6:00 PM -40.0 °F -52.6 °F 49% 30.52 in 15.0 mi Calm Calm - N/A   Clear
7:00 PM -43.6 °F -50.8 °F 67% 30.52 in 15.0 mi Calm Calm - N/A   Clear
8:00 PM -45.4 °F -50.8 °F 74% 30.52 in 15.0 mi Calm Calm - N/A   Clear
9:00 PM -43.6 °F -50.8 °F 67% 30.52 in 15.0 mi Calm Calm - N/A   Clear